When you browse on this site, cookies collect data to enhance your experience and personalize the content and advertising you see.
Visit our Privacy Policy to learn more. By continuing to use the site, you agree to this use of cookies and data.
  • In United Kingdom
  • List of Countries
  • For 7 days
  • Water Temperature
  • Weather Map
  • Weather Widgets
  • user-avatar
    Login

    Hourly Weather Aberystwyth

    Today, 18 September, Wednesday

    Time Temperature Precipitation Wind Pressure Humidity
    00:00 +8°C° 0 mm 2 mps 763 mmHg 90%
    01:00 +8°C° 0 mm 2 mps 763 mmHg 89%
    02:00 +8°C° 0 mm 1 mps 763 mmHg 89%
    03:00 +8°C° 0 mm 1 mps 763 mmHg 88%
    04:00 +8°C° 0 mm 1 mps 763 mmHg 88%
    05:00 +8°C° 0 mm 1 mps 763 mmHg 88%
    06:00 +8°C° 0 mm 1 mps 764 mmHg 88%
    07:00 +10°C° 0 mm 1 mps 764 mmHg 82%
    08:00 +12°C° 0 mm 1 mps 764 mmHg 77%
    09:00 +13°C° 0 mm 0 mps 764 mmHg 71%
    10:00 +15°C° 0 mm 1 mps 764 mmHg 68%
    11:00 +16°C° 0 mm 1 mps 764 mmHg 65%
    12:00 +19°C° 0 mm 1 mps 764 mmHg 61%
    13:00 +18°C° 0 mm 1 mps 764 mmHg 64%
    14:00 +18°C° 0 mm 1 mps 764 mmHg 66%
    15:00 +18°C° 0 mm 1 mps 764 mmHg 68%
    16:00 +16°C° 0 mm 1 mps 764 mmHg 74%
    17:00 +15°C° 0 mm 1 mps 763 mmHg 79%
    18:00 +13°C° 0 mm 1 mps 763 mmHg 85%
    19:00 +13°C° 0 mm 1 mps 764 mmHg 86%
    20:00 +12°C° 0 mm 1 mps 764 mmHg 88%
    21:00 +11°C° 0 mm 1 mps 764 mmHg 89%
    22:00 +11°C° 0 mm 1 mps 764 mmHg 89%
    23:00 +11°C° 0 mm 1 mps 764 mmHg 88%

    Tomorrow, 19 September, Thursday

    Time Temperature Precipitation Wind Pressure Humidity
    00:00 +11°C° 0 mm 1 mps 764 mmHg 88%
    01:00 +11°C° 0 mm 1 mps 764 mmHg 88%
    02:00 +11°C° 0 mm 1 mps 764 mmHg 87%
    03:00 +10°C° 0 mm 1 mps 764 mmHg 87%
    04:00 +10°C° 0 mm 1 mps 764 mmHg 86%
    05:00 +10°C° 0 mm 1 mps 764 mmHg 85%
    06:00 +10°C° 0 mm 1 mps 764 mmHg 85%
    07:00 +12°C° 0 mm 1 mps 764 mmHg 80%
    08:00 +14°C° 0 mm 1 mps 765 mmHg 76%
    09:00 +16°C° 0 mm 1 mps 765 mmHg 72%
    10:00 +18°C° 0 mm 1 mps 765 mmHg 69%
    11:00 +19°C° 0 mm 1 mps 764 mmHg 67%
    12:00 +20°C° 0 mm 1 mps 764 mmHg 65%
    13:00 +20°C° 0 mm 1 mps 764 mmHg 66%
    14:00 +20°C° 0 mm 1 mps 764 mmHg 67%
    15:00 +20°C° 0 mm 1 mps 764 mmHg 68%
    16:00 +19°C° 0 mm 1 mps 763 mmHg 75%
    17:00 +16°C° 0 mm 1 mps 763 mmHg 81%
    18:00 +15°C° 0 mm 1 mps 763 mmHg 87%
    19:00 +14°C° 0 mm 1 mps 763 mmHg 88%
    20:00 +14°C° 0 mm 1 mps 763 mmHg 89%
    21:00 +13°C° 0 mm 1 mps 763 mmHg 90%
    22:00 +13°C° 0 mm 1 mps 763 mmHg 90%
    23:00 +13°C° 0 mm 2 mps 763 mmHg 90%

    Day after tomorrow, 20 September, Friday

    Time Temperature Precipitation Wind Pressure Humidity
    00:00 +12°C° 0 mm 2 mps 762 mmHg 90%
    01:00 +12°C° 0 mm 2 mps 762 mmHg 91%
    02:00 +11°C° 0 mm 3 mps 762 mmHg 91%
    03:00 +11°C° 0 mm 3 mps 761 mmHg 91%
    04:00 +10°C° 0 mm 3 mps 761 mmHg 92%
    05:00 +10°C° 0 mm 3 mps 760 mmHg 92%
    06:00 +10°C° 0 mm 3 mps 760 mmHg 92%
    07:00 +11°C° 0 mm 4 mps 760 mmHg 87%
    08:00 +13°C° 0 mm 4 mps 760 mmHg 83%
    09:00 +14°C° 0 mm 5 mps 760 mmHg 79%
    10:00 +15°C° 0 mm 5 mps 759 mmHg 75%
    11:00 +16°C° 0 mm 6 mps 758 mmHg 72%
    12:00 +17°C° 0 mm 6 mps 758 mmHg 69%
    13:00 +17°C° 0 mm 6 mps 757 mmHg 68%
    14:00 +17°C° 0 mm 6 mps 756 mmHg 67%
    15:00 +17°C° 0 mm 7 mps 756 mmHg 66%
    16:00 +16°C° 0 mm 7 mps 755 mmHg 67%
    17:00 +16°C° 0 mm 6 mps 754 mmHg 68%
    18:00 +15°C° 0 mm 6 mps 754 mmHg 68%
    19:00 +14°C° 0 mm 7 mps 753 mmHg 64%
    20:00 +13°C° 0 mm 8 mps 753 mmHg 61%
    21:00 +12°C° 0 mm 8 mps 753 mmHg 57%
    22:00 +12°C° 0 mm 9 mps 752 mmHg 60%
    23:00 +11°C° 0 mm 9 mps 752 mmHg 62%

    21 September, Saturday

    Time Temperature Precipitation Wind Pressure Humidity
    00:00 +11°C° 0 mm 9 mps 751 mmHg 65%
    01:00 +11°C° 0 mm 9 mps 751 mmHg 66%
    02:00 +10°C° 0 mm 9 mps 750 mmHg 67%
    03:00 +10°C° 0 mm 8 mps 750 mmHg 68%
    04:00 +10°C° 0 mm 8 mps 749 mmHg 69%
    05:00 +10°C° 0 mm 8 mps 748 mmHg 69%
    06:00 +10°C° 0 mm 8 mps 748 mmHg 70%
    07:00 +11°C° 0 mm 8 mps 748 mmHg 70%
    08:00 +12°C° 0 mm 8 mps 747 mmHg 71%
    09:00 +13°C° 0 mm 8 mps 747 mmHg 71%
    10:00 +16°C° 0 mm 8 mps 747 mmHg 71%
    11:00 +17°C° 0 mm 8 mps 746 mmHg 71%
    12:00 +18°C° 0 mm 8 mps 746 mmHg 71%
    13:00 +20°C° 0 mm 8 mps 745 mmHg 73%
    14:00 +21°C° 0 mm 8 mps 745 mmHg 74%
    15:00 +21°C° 0 mm 8 mps 744 mmHg 75%
    16:00 +21°C° 0 mm 8 mps 744 mmHg 78%
    17:00 +20°C° 0 mm 7 mps 744 mmHg 80%
    18:00 +19°C° 0 mm 6 mps 743 mmHg 83%
    19:00 +18°C° 0.2 mm 7 mps 743 mmHg 84%
    20:00 +18°C° 0.2 mm 7 mps 743 mmHg 85%
    21:00 +17°C° 0.2 mm 7 mps 743 mmHg 87%
    22:00 +17°C° 0.1 mm 7 mps 742 mmHg 88%
    23:00 +17°C° 0.1 mm 7 mps 742 mmHg 89%

    22 September, Sunday

    Time Temperature Precipitation Wind Pressure Humidity
    00:00 +16°C° 0.1 mm 6 mps 741 mmHg 90%
    01:00 +16°C° 0.2 mm 6 mps 742 mmHg 91%
    02:00 +16°C° 0.2 mm 6 mps 742 mmHg 93%
    03:00 +15°C° 0.2 mm 6 mps 742 mmHg 95%
    04:00 +14°C° 0 mm 6 mps 742 mmHg 95%
    05:00 +13°C° 0 mm 5 mps 742 mmHg 95%
    06:00 +13°C° 0 mm 4 mps 742 mmHg 95%
    07:00 +13°C° 0.1 mm 5 mps 742 mmHg 93%
    08:00 +14°C° 0.1 mm 6 mps 743 mmHg 91%
    09:00 +15°C° 0.1 mm 6 mps 743 mmHg 89%
    10:00 +16°C° 0.1 mm 7 mps 743 mmHg 84%
    11:00 +16°C° 0.1 mm 7 mps 743 mmHg 78%
    12:00 +17°C° 0.1 mm 7 mps 743 mmHg 73%
    13:00 +16°C° 0.1 mm 7 mps 743 mmHg 74%
    14:00 +16°C° 0.1 mm 7 mps 743 mmHg 75%
    15:00 +16°C° 0.1 mm 7 mps 743 mmHg 77%
    16:00 +15°C° 0.2 mm 8 mps 743 mmHg 81%
    17:00 +13°C° 0.2 mm 8 mps 744 mmHg 86%
    18:00 +12°C° 0.2 mm 8 mps 744 mmHg 90%
    19:00 +11°C° 0 mm 8 mps 745 mmHg 91%
    20:00 +11°C° 0 mm 7 mps 745 mmHg 91%
    21:00 +10°C° 0 mm 7 mps 746 mmHg 91%
    22:00 +10°C° 0 mm 6 mps 746 mmHg 92%
    23:00 +9°C° 0 mm 5 mps 747 mmHg 92%

    23 September, Monday

    Time Temperature Precipitation Wind Pressure Humidity
    00:00 +10°C° 0 mm 4 mps 747 mmHg 93%
    01:00 +10°C° 0 mm 4 mps 747 mmHg 93%
    02:00 +8°C° 0 mm 4 mps 747 mmHg 94%
    03:00 +9°C° 0 mm 3 mps 747 mmHg 94%
    04:00 +8°C° 0 mm 4 mps 747 mmHg 94%
    05:00 +8°C° 0 mm 4 mps 746 mmHg 94%
    06:00 +9°C° 0 mm 5 mps 746 mmHg 95%
    07:00 +10°C° 0 mm 5 mps 746 mmHg 92%
    08:00 +11°C° 0 mm 6 mps 746 mmHg 90%
    09:00 +13°C° 0 mm 6 mps 745 mmHg 87%
    10:00 +14°C° 0.1 mm 6 mps 745 mmHg 88%
    11:00 +14°C° 0.1 mm 7 mps 745 mmHg 89%
    12:00 +14°C° 0.1 mm 7 mps 744 mmHg 90%
    13:00 +15°C° 0.4 mm 6 mps 744 mmHg 91%
    14:00 +15°C° 0.4 mm 5 mps 744 mmHg 93%
    15:00 +17°C° 0.4 mm 4 mps 744 mmHg 94%
    16:00 +16°C° 0.2 mm 5 mps 744 mmHg 95%
    17:00 +16°C° 0.2 mm 6 mps 744 mmHg 96%
    18:00 +16°C° 0.2 mm 6 mps 744 mmHg 97%
    19:00 +16°C° 0.1 mm 6 mps 745 mmHg 97%
    20:00 +15°C° 0.1 mm 5 mps 745 mmHg 97%
    21:00 +14°C° 0.1 mm 5 mps 746 mmHg 97%
    22:00 +14°C° 0 mm 4 mps 746 mmHg 97%
    23:00 +14°C° 0 mm 4 mps 746 mmHg 97%
    Show more